This is the latest recevied weather packets stored in our database for station/object WB4FAY-4. If no packets are shown the sender has not sent any weather packets the latest 1 day(s).
| Time | Temp. | Humidity | Pressure | Rain* | Wind** | Luminosity | Snow |
|---|---|---|---|---|---|---|---|
| 1777988717 | 17.78° C | 77% | 1016.1 hPa | 0 mm | 1.34 m/s, 239° | - | - |
| 1777988417 | 17.22° C | 80% | 1016 hPa | 0 mm | 0.89 m/s, 260° | - | - |
| 1777988117 | 17.22° C | 81% | 1015.9 hPa | 0 mm | 0 m/s | - | - |
| 1777987817 | 16.67° C | 82% | 1015.9 hPa | 0 mm | 0 m/s | - | - |
| 1777987518 | 16.67° C | 82% | 1015.9 hPa | 0 mm | 0 m/s | - | - |
| 1777987217 | 16.11° C | 84% | 1016 hPa | 0 mm | 0 m/s | - | - |
| 1777986917 | 16.11° C | 85% | 1016 hPa | 0 mm | 0 m/s | - | - |
| 1777986617 | 15.56° C | 85% | 1015.8 hPa | 0 mm | 0 m/s | - | - |
| 1777986317 | 15.56° C | 87% | 1015.6 hPa | 0 mm | 0 m/s | - | - |
| 1777986017 | 15° C | 88% | 1015.7 hPa | 0 mm | 0 m/s | - | - |
| 1777985717 | 15° C | 88% | 1015.6 hPa | 0 mm | 0 m/s | - | - |
| 1777985417 | 15° C | 89% | 1015.7 hPa | 0 mm | 0 m/s | - | - |
| 1777985117 | 14.44° C | 90% | 1015.6 hPa | 0 mm | 0 m/s | - | - |
| 1777984817 | 14.44° C | 91% | 1015.5 hPa | 0 mm | 0 m/s | - | - |
| 1777984517 | 14.44° C | 92% | 1015.4 hPa | 0 mm | 0 m/s | - | - |
| 1777984217 | 13.89° C | 92% | 1015.3 hPa | 0 mm | 0 m/s | - | - |
| 1777983917 | 13.89° C | 93% | 1015.2 hPa | 0 mm | 0 m/s | - | - |
| 1777983618 | 13.33° C | 93% | 1015.1 hPa | 0 mm | 0 m/s | - | - |
| 1777983317 | 13.33° C | 92% | 1015.1 hPa | 0 mm | 0 m/s | - | - |
| 1777983018 | 13.33° C | 93% | 1015.1 hPa | 0 mm | 0 m/s | - | - |
| 1777982717 | 13.33° C | 93% | 1015.3 hPa | 0 mm | 0 m/s | - | - |
| 1777982417 | 12.78° C | 92% | 1015.2 hPa | 0 mm | 0 m/s | - | - |
| 1777982117 | 12.78° C | 92% | 1015.1 hPa | 0 mm | 0 m/s | - | - |
| 1777981818 | 12.78° C | 92% | 1014.9 hPa | 0 mm | 0 m/s | - | - |
| 1777981517 | 12.78° C | 92% | 1015 hPa | 0 mm | 0 m/s | - | - |
* Rain latest 24 hours (hover to see other rain measurements)
** Current wind speed in m/s (hover to see current wind gust speed)